Radiation Dose at Monitoring Post of Fukushima Daini Nuclear Power Station
Date,Time,MP-1(microSv/h),MP-2(microSv/h),MP-3(microSv/h),MP-4(microSv/h),MP-5(microSv/h),MP-6(microSv/h),MP-7(microSv/h),Wind Direction,Wind Velocity(m/s),Rain
2015/07/21,00:00,0.486,0.283,0.504,0.459,0.455,0.228,0.197,south,2.9,No
2015/07/21,00:10,0.485,0.286,0.507,0.462,0.460,0.229,0.199,south-southwest,2.7,No
2015/07/21,00:20,0.490,0.286,0.512,0.468,0.456,0.229,0.198,south,2.2,No
2015/07/21,00:30,0.490,0.284,0.507,0.462,0.453,0.228,0.197,south-southwest,2.2,No
2015/07/21,00:40,0.486,0.285,0.501,0.458,0.461,0.229,0.197,south,3.3,No
2015/07/21,00:50,0.485,0.286,0.509,0.465,0.459,0.228,0.199,south-southeast,4.4,No
2015/07/21,01:00,0.493,0.283,0.508,0.467,0.454,0.228,0.198,south,4.8,No
2015/07/21,01:10,0.488,0.285,0.502,0.459,0.457,0.229,0.199,south,3.9,No
2015/07/21,01:20,0.485,0.286,0.509,0.465,0.461,0.228,0.199,south,4.2,No
2015/07/21,01:30,0.489,0.282,0.510,0.467,0.455,0.229,0.197,south,3.7,No
2015/07/21,01:40,0.489,0.285,0.506,0.463,0.453,0.229,0.200,south,3.8,No
2015/07/21,01:50,0.486,0.285,0.503,0.461,0.462,0.229,0.198,south,3.9,No
2015/07/21,02:00,0.491,0.283,0.509,0.466,0.457,0.228,0.196,south-southwest,4.2,No
2015/07/21,02:10,0.489,0.285,0.506,0.463,0.451,0.229,0.199,south-southwest,3.9,No
2015/07/21,02:20,0.485,0.287,0.502,0.459,0.459,0.229,0.198,south-southwest,3.2,No
2015/07/21,02:30,0.485,0.285,0.511,0.467,0.459,0.228,0.197,south-southwest,3.1,No
2015/07/21,02:40,0.489,0.283,0.507,0.463,0.455,0.229,0.198,south-southwest,2.8,No
2015/07/21,02:50,0.486,0.287,0.502,0.459,0.456,0.229,0.198,south-southwest,2.5,No
2015/07/21,03:00,0.484,0.285,0.507,0.462,0.460,0.229,0.197,south,2.6,No
2015/07/21,03:10,0.491,0.283,0.510,0.465,0.456,0.230,0.198,south-southwest,2.7,No
2015/07/21,03:20,0.490,0.287,0.505,0.462,0.453,0.229,0.200,south-southwest,3.3,No
2015/07/21,03:30,0.485,0.286,0.507,0.462,0.461,0.229,0.197,south-southwest,3.6,No
2015/07/21,03:40,0.489,0.285,0.513,0.466,0.460,0.230,0.200,south-southwest,2.8,No
2015/07/21,03:50,0.491,0.288,0.507,0.466,0.454,0.230,0.199,south,2.8,No
2015/07/21,04:00,0.487,0.288,0.502,0.459,0.458,0.228,0.198,south-southwest,2.5,No
2015/07/21,04:10,0.485,0.284,0.509,0.466,0.462,0.229,0.198,west-southwest,1.1,No
2015/07/21,04:20,0.491,0.286,0.508,0.465,0.454,0.230,0.198,south,0.7,No
2015/07/21,04:30,0.489,0.287,0.503,0.461,0.454,0.230,0.198,south-southeast,0.7,No
2015/07/21,04:40,0.484,0.286,0.506,0.463,0.462,0.230,0.198,-,CALM,No
2015/07/21,04:50,0.492,0.283,0.511,0.469,0.460,0.228,0.199,-,CALM,No
2015/07/21,05:00,0.490,0.287,0.506,0.462,0.454,0.230,0.197,-,CALM,No
2015/07/21,05:10,0.484,0.287,0.505,0.460,0.457,0.229,0.198,southeast,0.8,No
2015/07/21,05:20,0.489,0.284,0.513,0.467,0.461,0.230,0.199,south,1.3,No
2015/07/21,05:30,0.492,0.287,0.508,0.467,0.454,0.229,0.198,south,1.5,No
2015/07/21,05:40,0.487,0.287,0.504,0.460,0.453,0.229,0.200,south,1.4,No
2015/07/21,05:50,0.484,0.285,0.509,0.460,0.462,0.230,0.199,south,1.6,No
2015/07/21,06:00,0.495,0.284,0.509,0.469,0.458,0.230,0.198,south-southwest,1.5,No
2015/07/21,06:10,0.489,0.287,0.505,0.464,0.456,0.229,0.199,south-southwest,0.7,No
2015/07/21,06:20,0.484,0.287,0.503,0.462,0.456,0.230,0.200,south-southwest,0.9,No
2015/07/21,06:30,0.489,0.284,0.512,0.463,0.461,0.230,0.198,south-southwest,1.0,No
2015/07/21,06:40,0.494,0.286,0.510,0.470,0.461,0.230,0.200,south,0.7,No
2015/07/21,06:50,0.489,0.289,0.505,0.464,0.455,0.231,0.200,-,CALM,No
2015/07/21,07:00,0.484,0.286,0.503,0.461,0.453,0.232,0.198,south-southwest,1.6,No
2015/07/21,07:10,0.494,0.284,0.508,0.461,0.460,0.230,0.198,south,2.0,No
2015/07/21,07:20,0.491,0.284,0.510,0.466,0.462,0.228,0.198,south,1.4,No
2015/07/21,07:30,0.488,0.288,0.507,0.467,0.459,0.229,0.200,south,1.9,No
2015/07/21,07:40,0.487,0.288,0.504,0.465,0.455,0.230,0.199,south,2.3,No
2015/07/21,07:50,0.494,0.285,0.506,0.461,0.455,0.231,0.199,south,3.0,No
2015/07/21,08:00,0.490,0.284,0.511,0.461,0.455,0.229,0.197,south,3.2,No
2015/07/21,08:10,0.488,0.285,0.508,0.462,0.454,0.230,0.198,south,3.9,No
2015/07/21,08:20,0.485,0.284,0.507,0.461,0.455,0.230,0.196,south,4.0,No
2015/07/21,08:30,0.485,0.285,0.506,0.462,0.456,0.230,0.199,south,3.8,No
2015/07/21,08:40,0.485,0.284,0.504,0.462,0.457,0.230,0.198,south,3.9,No
2015/07/21,08:50,0.485,0.287,0.503,0.463,0.457,0.232,0.198,south,3.5,No
2015/07/21,09:00,0.487,0.287,0.503,0.464,0.458,0.230,0.198,south,3.8,No
2015/07/21,09:10,0.488,0.286,0.503,0.463,0.456,0.230,0.198,south,4.1,No
2015/07/21,09:20,0.487,0.287,0.504,0.466,0.457,0.230,0.198,south,3.9,No
2015/07/21,09:30,0.487,0.286,0.510,0.466,0.458,0.230,0.199,south,3.3,No
2015/07/21,09:40,0.489,0.286,0.508,0.466,0.459,0.231,0.198,south,2.7,No
2015/07/21,09:50,0.491,0.287,0.509,0.467,0.459,0.231,0.198,south,4.2,No
2015/07/21,10:00,0.489,0.287,0.507,0.467,0.458,0.231,0.198,south,4.2,No
2015/07/21,10:10,0.490,0.287,0.507,0.467,0.458,0.231,0.196,south,4.0,No
2015/07/21,10:20,0.490,0.287,0.505,0.467,0.460,0.231,0.197,south,4.0,No
2015/07/21,10:30,0.491,0.289,0.505,0.468,0.458,0.231,0.199,south,3.6,No
2015/07/21,10:40,0.489,0.287,0.505,0.466,0.458,0.229,0.199,south,3.6,No
2015/07/21,10:50,0.487,0.286,0.506,0.468,0.457,0.229,0.198,south,3.6,No
2015/07/21,11:00,0.488,0.287,0.508,0.467,0.458,0.230,0.198,south,3.9,No
2015/07/21,11:10,0.490,0.288,0.507,0.467,0.459,0.229,0.199,south-southeast,3.8,No
2015/07/21,11:20,0.490,0.286,0.508,0.468,0.458,0.229,0.199,south,4.6,No
2015/07/21,11:30,0.489,0.288,0.509,0.467,0.458,0.230,0.200,south,4.0,No
2015/07/21,11:40,0.490,0.287,0.509,0.468,0.458,0.231,0.200,south,4.8,No
2015/07/21,11:50,0.489,0.285,0.511,0.469,0.460,0.230,0.200,south,4.2,No
2015/07/21,12:00,0.489,0.286,0.509,0.468,0.461,0.230,0.199,south-southeast,3.8,No
2015/07/21,12:10,0.492,0.287,0.511,0.469,0.460,0.231,0.200,south,3.4,No
2015/07/21,12:20,0.492,0.287,0.513,0.468,0.461,0.231,0.200,south,2.8,No
2015/07/21,12:30,0.491,0.286,0.513,0.467,0.460,0.232,0.199,south,3.6,No
2015/07/21,12:40,0.491,0.288,0.512,0.467,0.462,0.231,0.200,south-southeast,3.9,No
2015/07/21,12:50,0.493,0.289,0.512,0.469,0.460,0.232,0.200,south-southeast,4.5,No
2015/07/21,13:00,0.491,0.287,0.513,0.468,0.461,0.231,0.200,south-southeast,4.4,No
2015/07/21,13:10,0.488,0.286,0.512,0.468,0.458,0.230,0.200,south,5.0,No
2015/07/21,13:20,0.488,0.287,0.514,0.468,0.458,0.231,0.203,south,4.7,No
2015/07/21,13:30,0.490,0.288,0.512,0.467,0.457,0.230,0.200,south,4.7,No
2015/07/21,13:40,0.488,0.288,0.513,0.468,0.455,0.229,0.201,south,5.0,No
2015/07/21,13:50,0.488,0.288,0.509,0.468,0.456,0.231,0.200,south,5.3,No
2015/07/21,14:00,0.488,0.286,0.510,0.469,0.454,0.231,0.200,south,4.9,No
2015/07/21,14:10,0.490,0.287,0.510,0.469,0.454,0.232,0.199,south,4.9,No
2015/07/21,14:20,0.489,0.288,0.508,0.468,0.455,0.232,0.200,south,5.2,No
2015/07/21,14:30,0.489,0.286,0.510,0.469,0.454,0.232,0.198,south-southwest,5.5,No
2015/07/21,14:40,0.488,0.285,0.510,0.468,0.455,0.233,0.199,south,4.9,No
2015/07/21,14:50,0.492,0.286,0.509,0.467,0.456,0.232,0.199,south,5.2,No
2015/07/21,15:00,0.491,0.287,0.510,0.465,0.455,0.232,0.199,south-southwest,5.4,No
2015/07/21,15:10,0.491,0.288,0.509,0.464,0.455,0.232,0.200,south,5.6,No
2015/07/21,15:20,0.488,0.288,0.510,0.466,0.456,0.232,0.199,south,6.4,No
2015/07/21,15:30,0.488,0.286,0.509,0.464,0.457,0.231,0.198,south,6.4,No
2015/07/21,15:40,0.488,0.287,0.505,0.463,0.457,0.232,0.198,south,6.7,No
2015/07/21,15:50,0.489,0.287,0.506,0.464,0.456,0.232,0.199,south,6.1,No
2015/07/21,16:00,0.486,0.285,0.507,0.463,0.455,0.230,0.199,south,6.2,No
2015/07/21,16:10,0.488,0.285,0.506,0.463,0.455,0.230,0.196,south,5.9,No
2015/07/21,16:20,0.486,0.286,0.504,0.462,0.456,0.230,0.198,south,6.3,No
2015/07/21,16:30,0.487,0.284,0.505,0.463,0.455,0.229,0.199,south,5.0,No
2015/07/21,16:40,0.491,0.284,0.506,0.464,0.454,0.229,0.200,south,5.8,No
2015/07/21,16:50,0.494,0.283,0.505,0.462,0.453,0.229,0.199,south,5.8,No
2015/07/21,17:00,0.490,0.287,0.503,0.468,0.454,0.229,0.198,south,5.3,No
2015/07/21,17:10,0.489,0.290,0.505,0.470,0.453,0.231,0.198,south,4.8,No
2015/07/21,17:20,0.486,0.287,0.507,0.468,0.454,0.230,0.200,south,5.2,No
2015/07/21,17:30,0.486,0.286,0.511,0.464,0.455,0.231,0.200,south,5.2,No
2015/07/21,17:40,0.493,0.284,0.511,0.465,0.454,0.231,0.198,south,4.5,No
2015/07/21,17:50,0.496,0.288,0.508,0.476,0.454,0.230,0.199,south,4.6,No
2015/07/21,18:00,0.490,0.289,0.508,0.471,0.454,0.230,0.200,south-southeast,4.4,No
2015/07/21,18:10,0.488,0.288,0.517,0.467,0.454,0.230,0.199,south,4.8,No
2015/07/21,18:20,0.498,0.288,0.516,0.465,0.462,0.230,0.199,south,4.0,No
2015/07/21,18:30,0.494,0.289,0.510,0.474,0.460,0.229,0.200,south-southwest,2.8,No
2015/07/21,18:40,0.488,0.286,0.509,0.470,0.457,0.231,0.199,south,2.2,No
2015/07/21,18:50,0.493,0.286,0.517,0.466,0.459,0.231,0.198,south,3.1,No
2015/07/21,19:00,0.494,0.290,0.515,0.468,0.466,0.231,0.199,south,2.7,No
2015/07/21,19:10,0.491,0.288,0.509,0.472,0.459,0.230,0.198,south,3.0,No
2015/07/21,19:20,0.489,0.285,0.511,0.468,0.454,0.231,0.199,south,3.2,No
2015/07/21,19:30,0.496,0.289,0.515,0.464,0.460,0.230,0.200,south,2.3,No
2015/07/21,19:40,0.491,0.288,0.511,0.472,0.460,0.230,0.198,south,2.5,No
2015/07/21,19:50,0.488,0.285,0.508,0.470,0.455,0.230,0.199,south,2.2,No
2015/07/21,20:00,0.495,0.287,0.516,0.464,0.459,0.230,0.200,south,1.4,No
2015/07/21,20:10,0.493,0.287,0.513,0.471,0.461,0.230,0.200,south,2.4,No
2015/07/21,20:20,0.488,0.286,0.509,0.473,0.458,0.231,0.199,south,2.7,No
2015/07/21,20:30,0.490,0.288,0.515,0.466,0.459,0.231,0.201,south,3.0,No
2015/07/21,20:40,0.495,0.288,0.514,0.469,0.463,0.230,0.200,south,2.3,No
2015/07/21,20:50,0.490,0.287,0.509,0.472,0.459,0.232,0.199,south,2.1,No
2015/07/21,21:00,0.490,0.289,0.515,0.468,0.457,0.231,0.200,south,1.9,No
2015/07/21,21:10,0.495,0.287,0.514,0.468,0.464,0.230,0.199,south-southwest,2.5,No
2015/07/21,21:20,0.490,0.285,0.510,0.472,0.460,0.231,0.199,south,2.2,No
2015/07/21,21:30,0.491,0.289,0.512,0.469,0.457,0.231,0.201,south,2.8,No
2015/07/21,21:40,0.496,0.287,0.517,0.467,0.464,0.229,0.199,south,3.1,No
2015/07/21,21:50,0.492,0.285,0.511,0.474,0.459,0.233,0.199,south-southwest,3.1,No
2015/07/21,22:00,0.491,0.289,0.512,0.468,0.457,0.232,0.200,south-southwest,2.2,No
2015/07/21,22:10,0.495,0.287,0.516,0.465,0.462,0.230,0.199,south-southwest,3.0,No
2015/07/21,22:20,0.490,0.287,0.512,0.474,0.460,0.232,0.201,south-southwest,3.0,No
2015/07/21,22:30,0.490,0.289,0.511,0.469,0.458,0.232,0.201,south-southwest,3.5,No
2015/07/21,22:40,0.495,0.286,0.517,0.466,0.464,0.230,0.199,south,3.5,No
2015/07/21,22:50,0.491,0.289,0.512,0.472,0.459,0.231,0.201,south-southwest,3.3,No
2015/07/21,23:00,0.490,0.289,0.510,0.467,0.458,0.231,0.201,south-southwest,3.1,No
2015/07/21,23:10,0.496,0.285,0.518,0.468,0.463,0.232,0.200,south-southwest,3.7,No
2015/07/21,23:20,0.491,0.290,0.513,0.472,0.458,0.232,0.202,south-southwest,4.4,No
2015/07/21,23:30,0.491,0.290,0.510,0.470,0.457,0.230,0.200,south-southwest,3.7,No
2015/07/21,23:40,0.495,0.286,0.517,0.467,0.464,0.232,0.201,south-southwest,3.6,No
2015/07/21,23:50,0.489,0.289,0.512,0.474,0.459,0.232,0.201,south-southwest,2.3,No
